sat.trackr.live / text

‹ back to catalog

EXPRESS 80

NORAD 45986 · 2020-053B

PAYLOAD ACTIVE UNKNOWN

§ Identity

Operator
Country
CIS
Launch date
2020-07-30
Launch site
TYMSC
Launch vehicle
Mass (kg)
RCS (m²)

Purposes: comms

External: N2YO · Heavens-Above · Gunter

§ Orbital elements

Epoch: 2026-05-24T02:33:07.783776Z

Period
1,436.06 min
Inclination
0.0176°
Eccentricity
0.0001439
Mean motion
1.00274585 rev/d
Perigee alt
35,779.7 km
Apogee alt
35,791.9 km
Semi-major
42,163.9 km
B*
0.0000e+0
RAAN
272.8284°
Arg perigee
267.9875°
Mean anomaly
179.1790°
Rev number
2,139

§ Raw data

EXPRESS 801 45986U 20053B   26144.10634009 -.00000142  00000+0  00000+0 0  99982 45986   0.0176 272.8284 0001439 267.9875 179.1790  1.00274585 21393

JSON: /api/v1/satellites/45986 · /tle

For live sub-satellite position, see the globe view (requires WebGL).

§ Visibility from observer

Set your observer location to see the next 7 days of passes ≥ 10°. The values pass through the URL so the page stays shareable.

No JS? Fill the form by hand. The geolocation button needs JavaScript.